BLED ZGGG-VHHH

Flight info

Callsign BLED
Flight time N/A
Altitude 19000
Route VIBOS9 VIBOS R473 SIERA/N0430F246
Aircraft E55P/M-SDGRWY/L

Departure

Time 2026-05-04 09:49
Airport Guangzhou Baiyun International Airport (ZGGG)

Arrival

Time N/A
Airport Hong Kong International Airport (VHHH)
Time Latitude Longitude Altitude Speed Heading
2026-05-04 09:35 23.36494 113.29886 47 ft 0 kts 104°
2026-05-04 09:42 23.36650 113.30013 47 ft 12 kts 14°
2026-05-04 09:43 23.36764 113.30042 47 ft 18 kts 13°
2026-05-04 09:43 23.36884 113.30077 47 ft 17 kts 14°
2026-05-04 09:43 23.37005 113.30109 47 ft 19 kts 13°
2026-05-04 09:43 23.37152 113.30148 47 ft 24 kts 13°
2026-05-04 09:44 23.37319 113.30194 47 ft 24 kts 12°
2026-05-04 09:44 23.37480 113.30237 47 ft 23 kts 15°
2026-05-04 09:44 23.37624 113.30263 47 ft 17 kts 46°
2026-05-04 09:46 23.37601 113.30421 47 ft 0 kts 103°
2026-05-04 09:46 23.37600 113.30424 47 ft 2 kts 103°
2026-05-04 09:46 23.37592 113.30460 47 ft 6 kts 103°
2026-05-04 09:47 23.37587 113.30518 47 ft 6 kts 66°
2026-05-04 09:47 23.37620 113.30547 47 ft 6 kts 17°
2026-05-04 09:49 23.41447 113.31561 1999 ft 145 kts 18°
2026-05-04 09:49 23.42475 113.31892 2454 ft 165 kts 21°
2026-05-04 09:49 23.43571 113.32281 3132 ft 173 kts 19°
2026-05-04 09:51 23.51695 113.34734 6781 ft 246 kts
2026-05-04 09:51 23.53363 113.35114 7643 ft 248 kts 12°
2026-05-04 09:51 23.55083 113.35661 8286 ft 260 kts 13°
2026-05-04 09:51 23.56796 113.36185 9142 ft 258 kts
2026-05-04 09:52 23.58568 113.36425 9944 ft 259 kts
2026-05-04 09:52 23.60370 113.36719 10652 ft 265 kts 360°
2026-05-04 09:52 23.62106 113.36382 11284 ft 255 kts 323°
2026-05-04 09:52 23.63229 113.35020 12069 ft 241 kts 288°
2026-05-04 09:53 23.63562 113.33260 12895 ft 238 kts 277°
2026-05-04 09:53 23.63853 113.31486 13608 ft 241 kts 276°
2026-05-04 09:53 23.64105 113.29697 14360 ft 242 kts 276°
2026-05-04 09:53 23.64358 113.27878 15105 ft 244 kts 276°
2026-05-04 09:54 23.64608 113.26061 15769 ft 246 kts 276°
2026-05-04 09:54 23.64863 113.24211 16455 ft 249 kts 276°
2026-05-04 09:54 23.65114 113.22371 17139 ft 250 kts 277°
2026-05-04 09:54 23.65375 113.20479 17785 ft 253 kts 277°
2026-05-04 09:55 23.65631 113.18600 18395 ft 255 kts 277°
2026-05-04 09:55 23.65827 113.16670 18917 ft 261 kts 267°
2026-05-04 09:55 23.65192 113.14754 19040 ft 287 kts 238°
2026-05-04 09:55 23.63596 113.13251 19077 ft 317 kts 222°
2026-05-04 09:56 23.61930 113.11599 19056 ft 334 kts 228°
2026-05-04 09:56 23.60227 113.09876 19041 ft 352 kts 228°
2026-05-04 09:56 23.58156 113.08189 19027 ft 380 kts 210°
2026-05-04 09:56 23.55532 113.07527 19019 ft 394 kts 187°
2026-05-04 09:57 23.52775 113.07904 19035 ft 405 kts 179°
2026-05-04 09:57 23.49961 113.07869 19030 ft 403 kts 186°
2026-05-04 09:57 23.47267 113.07957 19017 ft 403 kts 186°
2026-05-04 09:57 23.44369 113.07958 19016 ft 404 kts 185°
2026-05-04 09:58 23.41563 113.07970 19023 ft 403 kts 186°
2026-05-04 09:58 23.38766 113.07993 19013 ft 402 kts 186°
2026-05-04 09:58 23.35948 113.08006 19022 ft 404 kts 185°
2026-05-04 10:00 23.12191 113.14340 19120 ft 418 kts 162°
2026-05-04 10:00 22.96858 113.21813 18712 ft 420 kts 162°